Location: ???????
(38.3360°N, 23.6977°E)
Time: 22:19:23
(UTC+00:00)

Cosmos 1782 Rocket - Pass Details

Date: 17 November 2025
Orbit: 599 x 626 km, 82.5° (Epoch: 13 December)

Event Time Altitude Azimuth Distance (km) Brightness Sun altitude
Rises 15:28:38 0° 187° (S) 2,895 7.4 -4.0°
Reaches altitude 10° 15:30:51 10° 188° (S) 1,993 6.6 -4.4°
Maximum altitude 15:35:16 83° 275° (W) 635 3.7 -5.2°
Drops below altitude 10° 15:39:44 10° 6° (N) 2,002 5.9 -6.0°
Sets 15:41:58 0° 7° (N) 2,910 6.7 -6.4°
